Wetterdaten: Montag, 29.09.2014
Datum Zeit Temp. A. Feuchte A. Luftdruck Regen Wind Richtung Richtung Sonnenschein ET UV Solar Taupunkt Windchill Windben Empfang
29.09.2014 00:00 10,7 C 87 % 1024,6 hPa 0,0 l/m 0,0 km/h (0 Bft) S 175 0 min 0,000 mm 0,0 UV-I 0 W/m 8,6 C 10,7 C 0,0 km/h (0 Bft) 0,00 %
29.09.2014 00:15 10,6 C 87 % 1024,7 hPa 0,0 l/m 0,0 km/h (0 Bft) S 189 0 min 0,000 mm 0,0 UV-I 0 W/m 8,5 C 10,6 C 0,0 km/h (0 Bft) 0,00 %
29.09.2014 00:30 10,5 C 89 % 1024,8 hPa 0,0 l/m 0,0 km/h (0 Bft) W-SW 251 0 min 0,000 mm 0,0 UV-I 0 W/m 8,8 C 10,5 C 0,0 km/h (0 Bft) 0,00 %
29.09.2014 00:45 10,3 C 89 % 1025,0 hPa 0,0 l/m 0,0 km/h (0 Bft) W-SW 251 0 min 0,000 mm 0,0 UV-I 0 W/m 8,6 C 10,3 C 0,0 km/h (0 Bft) 0,00 %
29.09.2014 01:00 10,2 C 89 % 1025,2 hPa 0,0 l/m 0,0 km/h (0 Bft) W-SW 251 0 min 0,000 mm 0,0 UV-I 0 W/m 8,5 C 10,2 C 0,0 km/h (0 Bft) 0,00 %
29.09.2014 01:15 10,1 C 89 % 1025,3 hPa 0,0 l/m 0,0 km/h (0 Bft) W-SW 251 0 min 0,000 mm 0,0 UV-I 0 W/m 8,4 C 10,1 C 0,0 km/h (0 Bft) 0,00 %
29.09.2014 01:30 10,1 C 89 % 1025,3 hPa 0,0 l/m 0,0 km/h (0 Bft) W-SW 251 0 min 0,000 mm 0,0 UV-I 0 W/m 8,4 C 10,1 C 0,0 km/h (0 Bft) 0,00 %
29.09.2014 01:45 10,3 C 90 % 1025,3 hPa 0,0 l/m 0,0 km/h (0 Bft) W-SW 251 0 min 0,000 mm 0,0 UV-I 0 W/m 8,7 C 10,3 C 0,0 km/h (0 Bft) 0,00 %
29.09.2014 02:00 10,4 C 90 % 1025,3 hPa 0,0 l/m 0,0 km/h (0 Bft) W-SW 251 0 min 0,000 mm 0,0 UV-I 0 W/m 8,8 C 10,4 C 0,0 km/h (0 Bft) 0,00 %
29.09.2014 02:15 10,4 C 89 % 1025,3 hPa 0,0 l/m 0,0 km/h (0 Bft) W-SW 251 0 min 0,000 mm 0,0 UV-I 0 W/m 8,7 C 10,4 C 0,0 km/h (0 Bft) 0,00 %
29.09.2014 02:30 10,4 C 89 % 1025,1 hPa 0,0 l/m 0,0 km/h (0 Bft) W-SW 251 0 min 0,000 mm 0,0 UV-I 0 W/m 8,7 C 10,4 C 0,0 km/h (0 Bft) 0,00 %
29.09.2014 02:45 10,4 C 90 % 1025,3 hPa 0,0 l/m 0,0 km/h (0 Bft) W-SW 251 0 min 0,000 mm 0,0 UV-I 0 W/m 8,8 C 10,4 C 0,0 km/h (0 Bft) 0,00 %
29.09.2014 03:00 10,5 C 89 % 1025,0 hPa 0,0 l/m 0,0 km/h (0 Bft) W-SW 251 0 min 0,000 mm 0,0 UV-I 0 W/m 8,8 C 10,5 C 0,0 km/h (0 Bft) 0,00 %
29.09.2014 03:15 10,5 C 89 % 1025,1 hPa 0,0 l/m 0,0 km/h (0 Bft) W-SW 251 0 min 0,000 mm 0,0 UV-I 0 W/m 8,8 C 10,5 C 0,0 km/h (0 Bft) 0,00 %
29.09.2014 03:30 10,7 C 89 % 1024,9 hPa 0,0 l/m 0,0 km/h (0 Bft) W-SW 251 0 min 0,000 mm 0,0 UV-I 0 W/m 9,0 C 10,7 C 0,0 km/h (0 Bft) 0,00 %
29.09.2014 03:45 10,8 C 89 % 1025,0 hPa 0,0 l/m 0,0 km/h (0 Bft) W-SW 251 0 min 0,000 mm 0,0 UV-I 0 W/m 9,1 C 10,8 C 0,0 km/h (0 Bft) 0,00 %
29.09.2014 04:00 10,9 C 89 % 1025,1 hPa 0,0 l/m 0,0 km/h (0 Bft) SW 220 0 min 0,000 mm 0,0 UV-I 0 W/m 9,2 C 10,9 C 0,0 km/h (0 Bft) 0,00 %
29.09.2014 04:15 10,9 C 89 % 1024,9 hPa 0,0 l/m 0,0 km/h (0 Bft) SW 215 0 min 0,000 mm 0,0 UV-I 0 W/m 9,2 C 10,9 C 0,0 km/h (0 Bft) 0,00 %
29.09.2014 04:30 11,0 C 89 % 1025,2 hPa 0,0 l/m 0,0 km/h (0 Bft) S-SW 213 0 min 0,000 mm 0,0 UV-I 0 W/m 9,3 C 11,0 C 0,0 km/h (0 Bft) 0,00 %
29.09.2014 04:45 11,1 C 89 % 1024,9 hPa 0,0 l/m 0,0 km/h (0 Bft) S-SW 213 0 min 0,000 mm 0,0 UV-I 0 W/m 9,4 C 11,1 C 0,0 km/h (0 Bft) 0,00 %
29.09.2014 05:00 11,2 C 90 % 1024,9 hPa 0,0 l/m 0,0 km/h (0 Bft) S-SW 213 0 min 0,000 mm 0,0 UV-I 0 W/m 9,6 C 11,2 C 0,0 km/h (0 Bft) 0,00 %
29.09.2014 05:15 11,2 C 90 % 1024,8 hPa 0,0 l/m 0,0 km/h (0 Bft) S-SW 213 0 min 0,000 mm 0,0 UV-I 0 W/m 9,6 C 11,2 C 0,0 km/h (0 Bft) 0,00 %
29.09.2014 05:30 11,2 C 90 % 1024,8 hPa 0,0 l/m 0,0 km/h (0 Bft) S-SW 213 0 min 0,000 mm 0,0 UV-I 0 W/m 9,6 C 11,2 C 0,0 km/h (0 Bft) 0,00 %
29.09.2014 05:45 11,3 C 90 % 1024,9 hPa 0,0 l/m 0,0 km/h (0 Bft) SW 217 0 min 0,000 mm 0,0 UV-I 0 W/m 9,7 C 11,3 C 0,0 km/h (0 Bft) 0,00 %
29.09.2014 06:00 11,3 C 90 % 1024,9 hPa 0,0 l/m 0,0 km/h (0 Bft) SW 217 0 min 0,000 mm 0,0 UV-I 0 W/m 9,7 C 11,3 C 0,0 km/h (0 Bft) 0,00 %
29.09.2014 06:15 11,4 C 89 % 1024,7 hPa 0,0 l/m 0,0 km/h (0 Bft) SW 217 0 min 0,000 mm 0,0 UV-I 0 W/m 9,7 C 11,4 C 0,0 km/h (0 Bft) 0,00 %
29.09.2014 06:30 11,4 C 90 % 1025,0 hPa 0,0 l/m 0,0 km/h (0 Bft) O-NO 61 0 min 0,000 mm 0,0 UV-I 0 W/m 9,8 C 11,4 C 0,0 km/h (0 Bft) 0,00 %
29.09.2014 06:45 11,2 C 90 % 1025,1 hPa 0,0 l/m 0,0 km/h (0 Bft) O-NO 75 0 min 0,000 mm 0,0 UV-I 0 W/m 9,6 C 11,2 C 0,0 km/h (0 Bft) 0,00 %
29.09.2014 07:00 11,0 C 90 % 1025,4 hPa 0,0 l/m 0,0 km/h (0 Bft) NO 34 0 min 0,000 mm 0,0 UV-I 0 W/m 9,4 C 11,0 C 0,0 km/h (0 Bft) 0,00 %
29.09.2014 07:15 11,0 C 90 % 1025,5 hPa 0,0 l/m 0,0 km/h (0 Bft) O-SO 110 0 min 0,000 mm 0,0 UV-I 0 W/m 9,4 C 11,0 C 0,0 km/h (0 Bft) 0,00 %
29.09.2014 07:30 11,1 C 90 % 1025,4 hPa 0,0 l/m 0,0 km/h (0 Bft) S-SO 152 0 min 0,000 mm 1,0 UV-I 5 W/m 9,5 C 11,1 C 0,0 km/h (0 Bft) 0,00 %
29.09.2014 07:45 11,2 C 90 % 1025,5 hPa 0,0 l/m 0,0 km/h (0 Bft) S-SW 196 0 min 0,000 mm 1,0 UV-I 25 W/m 9,6 C 11,2 C 0,0 km/h (0 Bft) 0,00 %
29.09.2014 08:00 11,5 C 89 % 1025,9 hPa 0,0 l/m 0,0 km/h (0 Bft) SW 223 0 min 0,000 mm 1,0 UV-I 28 W/m 9,8 C 11,5 C 0,0 km/h (0 Bft) 0,00 %
29.09.2014 08:15 11,7 C 89 % 1026,0 hPa 0,0 l/m 0,0 km/h (0 Bft) SW 216 0 min 0,000 mm 1,0 UV-I 40 W/m 9,9 C 11,7 C 0,0 km/h (0 Bft) 0,00 %
29.09.2014 08:30 11,8 C 89 % 1025,9 hPa 0,0 l/m 0,0 km/h (0 Bft) S 173 0 min 0,000 mm 1,0 UV-I 60 W/m 10,0 C 11,8 C 0,0 km/h (0 Bft) 0,00 %
29.09.2014 08:45 11,8 C 89 % 1026,1 hPa 0,0 l/m 0,0 km/h (0 Bft) W-SW 242 0 min 0,000 mm 2,0 UV-I 67 W/m 10,0 C 11,8 C 0,0 km/h (0 Bft) 0,00 %
29.09.2014 09:00 12,1 C 89 % 1026,3 hPa 0,0 l/m 0,0 km/h (0 Bft) SW 220 0 min 0,000 mm 1,0 UV-I 108 W/m 10,3 C 12,1 C 0,0 km/h (0 Bft) 0,00 %
29.09.2014 09:15 12,3 C 89 % 1026,0 hPa 0,0 l/m 0,0 km/h (0 Bft) SW 221 0 min 0,000 mm 2,0 UV-I 127 W/m 10,5 C 12,3 C 0,0 km/h (0 Bft) 0,00 %
29.09.2014 09:30 12,2 C 88 % 1026,3 hPa 0,0 l/m 0,0 km/h (0 Bft) W-SW 242 0 min 0,000 mm 1,0 UV-I 131 W/m 10,3 C 12,2 C 0,0 km/h (0 Bft) 0,00 %
29.09.2014 09:45 13,1 C 85 % 1026,2 hPa 0,0 l/m 0,0 km/h (0 Bft) N-NO 29 0 min 0,000 mm 1,0 UV-I 149 W/m 10,6 C 13,1 C 0,0 km/h (0 Bft) 0,00 %
29.09.2014 10:00 12,7 C 84 % 1026,4 hPa 0,0 l/m 0,0 km/h (0 Bft) W-SW 255 0 min 0,000 mm 1,0 UV-I 121 W/m 10,1 C 12,7 C 0,0 km/h (0 Bft) 0,00 %
29.09.2014 10:15 13,2 C 83 % 1026,2 hPa 0,0 l/m 0,0 km/h (0 Bft) NO 52 0 min 0,000 mm 2,0 UV-I 140 W/m 10,4 C 13,2 C 0,0 km/h (0 Bft) 0,00 %
29.09.2014 10:30 13,2 C 83 % 1026,3 hPa 0,0 l/m 0,4 km/h (0 Bft) W-SW 256 0 min 0,000 mm 3,0 UV-I 139 W/m 10,4 C 13,2 C 4,0 km/h (1 Bft) 0,00 %
29.09.2014 10:45 13,1 C 84 % 1026,5 hPa 0,0 l/m 0,0 km/h (0 Bft) SW 230 0 min 0,000 mm 3,0 UV-I 133 W/m 10,5 C 13,1 C 0,0 km/h (0 Bft) 0,00 %
29.09.2014 11:00 13,5 C 82 % 1026,3 hPa 0,0 l/m 0,0 km/h (0 Bft) SO 141 0 min 0,000 mm 3,0 UV-I 161 W/m 10,5 C 13,5 C 0,0 km/h (0 Bft) 0,00 %
29.09.2014 11:15 13,9 C 80 % 1026,0 hPa 0,0 l/m 0,0 km/h (0 Bft) SW 214 0 min 0,000 mm 3,0 UV-I 158 W/m 10,5 C 13,9 C 0,0 km/h (0 Bft) 0,00 %
29.09.2014 11:30 14,6 C 78 % 1025,4 hPa 0,0 l/m 0,7 km/h (0 Bft) NW 313 0 min 0,000 mm 4,0 UV-I 244 W/m 10,8 C 14,6 C 4,0 km/h (1 Bft) 0,00 %
29.09.2014 11:45 15,6 C 72 % 1025,2 hPa 0,0 l/m 0,0 km/h (0 Bft) SW 217 0 min 0,000 mm 5,0 UV-I 314 W/m 10,6 C 15,6 C 0,0 km/h (0 Bft) 0,00 %
29.09.2014 12:00 15,5 C 74 % 1024,8 hPa 0,0 l/m 1,4 km/h (1 Bft) O-SO 106 0 min 0,000 mm 5,0 UV-I 268 W/m 10,9 C 15,5 C 4,0 km/h (1 Bft) 0,00 %
29.09.2014 12:15 15,8 C 73 % 1024,2 hPa 0,0 l/m 0,4 km/h (0 Bft) N 354 0 min 0,000 mm 3,0 UV-I 321 W/m 11,0 C 15,8 C 4,0 km/h (1 Bft) 0,00 %
29.09.2014 12:30 15,6 C 74 % 1023,9 hPa 0,0 l/m 0,0 km/h (0 Bft) NO 41 15 min 0,000 mm 3,0 UV-I 502 W/m 11,0 C 15,6 C 0,0 km/h (0 Bft) 0,00 %
29.09.2014 12:45 16,4 C 74 % 1023,6 hPa 0,0 l/m 2,9 km/h (1 Bft) O-SO 119 15 min 0,000 mm 3,0 UV-I 508 W/m 11,8 C 16,4 C 4,0 km/h (1 Bft) 0,00 %
29.09.2014 13:00 16,0 C 76 % 1023,6 hPa 0,0 l/m 1,8 km/h (1 Bft) N-NO 28 15 min 0,000 mm 3,0 UV-I 576 W/m 11,8 C 16,0 C 4,0 km/h (1 Bft) 0,00 %
29.09.2014 13:15 16,2 C 76 % 1023,2 hPa 0,0 l/m 3,2 km/h (1 Bft) O-NO 78 15 min 0,000 mm 2,0 UV-I 560 W/m 12,0 C 16,2 C 4,0 km/h (1 Bft) 0,00 %
29.09.2014 13:30 16,2 C 75 % 1022,9 hPa 0,0 l/m 0,0 km/h (0 Bft) N 8 15 min 0,000 mm 2,0 UV-I 555 W/m 11,8 C 16,2 C 0,0 km/h (0 Bft) 0,00 %
29.09.2014 13:45 16,3 C 76 % 1022,7 hPa 0,0 l/m 1,4 km/h (1 Bft) W-NW 296 15 min 0,000 mm 2,0 UV-I 555 W/m 12,1 C 16,3 C 4,0 km/h (1 Bft) 0,00 %
29.09.2014 14:00 16,5 C 76 % 1022,5 hPa 0,0 l/m 0,0 km/h (0 Bft) N 349 15 min 0,000 mm 2,0 UV-I 550 W/m 12,3 C 16,5 C 0,0 km/h (0 Bft) 0,00 %
29.09.2014 14:15 16,6 C 75 % 1022,3 hPa 0,0 l/m 0,0 km/h (0 Bft) N 356 15 min 0,000 mm 2,0 UV-I 540 W/m 12,1 C 16,6 C 0,0 km/h (0 Bft) 0,00 %
29.09.2014 14:30 16,8 C 74 % 1022,1 hPa 0,0 l/m 0,4 km/h (0 Bft) S 184 15 min 0,000 mm 2,0 UV-I 523 W/m 12,1 C 16,8 C 4,0 km/h (1 Bft) 0,00 %
29.09.2014 14:45 16,8 C 73 % 1022,0 hPa 0,0 l/m 0,4 km/h (0 Bft) N 355 15 min 0,000 mm 2,0 UV-I 530 W/m 11,9 C 16,8 C 4,0 km/h (1 Bft) 0,00 %
29.09.2014 15:00 16,9 C 74 % 1022,1 hPa 0,0 l/m 1,4 km/h (1 Bft) NW 317 15 min 0,000 mm 2,0 UV-I 535 W/m 12,2 C 16,9 C 4,0 km/h (1 Bft) 0,00 %
29.09.2014 15:15 17,1 C 73 % 1021,9 hPa 0,0 l/m 1,4 km/h (1 Bft) NO 46 15 min 0,000 mm 2,0 UV-I 520 W/m 12,2 C 17,1 C 4,0 km/h (1 Bft) 0,00 %
29.09.2014 15:30 17,2 C 73 % 1021,8 hPa 0,0 l/m 0,4 km/h (0 Bft) N 354 15 min 0,000 mm 2,0 UV-I 515 W/m 12,3 C 17,2 C 4,0 km/h (1 Bft) 0,00 %
29.09.2014 15:45 17,4 C 72 % 1021,1 hPa 0,0 l/m 0,7 km/h (0 Bft) O 94 15 min 0,000 mm 1,0 UV-I 515 W/m 12,3 C 17,4 C 4,0 km/h (1 Bft) 0,00 %
29.09.2014 16:00 17,5 C 72 % 1021,4 hPa 0,0 l/m 0,4 km/h (0 Bft) NW 312 15 min 0,000 mm 1,0 UV-I 510 W/m 12,4 C 17,5 C 4,0 km/h (1 Bft) 0,00 %
29.09.2014 16:15 17,8 C 71 % 1020,9 hPa 0,0 l/m 0,0 km/h (0 Bft) O 89 15 min 0,000 mm 1,0 UV-I 500 W/m 12,5 C 17,8 C 0,0 km/h (0 Bft) 0,00 %
29.09.2014 16:30 18,0 C 72 % 1020,9 hPa 0,0 l/m 0,7 km/h (0 Bft) O-SO 120 15 min 0,000 mm 1,0 UV-I 511 W/m 12,9 C 18,0 C 4,0 km/h (1 Bft) 0,00 %
29.09.2014 16:45 18,7 C 67 % 1020,9 hPa 0,0 l/m 1,4 km/h (1 Bft) N-NO 27 15 min 0,000 mm 1,0 UV-I 490 W/m 12,4 C 18,7 C 4,0 km/h (1 Bft) 0,00 %
29.09.2014 17:00 19,0 C 67 % 1021,1 hPa 0,0 l/m 3,2 km/h (1 Bft) O-SO 110 15 min 0,000 mm 1,0 UV-I 447 W/m 12,7 C 19,0 C 4,0 km/h (1 Bft) 0,00 %
29.09.2014 17:15 18,7 C 68 % 1021,2 hPa 0,0 l/m 0,0 km/h (0 Bft) S-SO 147 15 min 0,000 mm 0,0 UV-I 417 W/m 12,7 C 18,7 C 0,0 km/h (0 Bft) 0,00 %
29.09.2014 17:30 18,3 C 68 % 1021,4 hPa 0,0 l/m 0,0 km/h (0 Bft) O 83 15 min 0,000 mm 0,0 UV-I 350 W/m 12,3 C 18,3 C 0,0 km/h (0 Bft) 0,00 %
29.09.2014 17:45 18,0 C 70 % 1021,5 hPa 0,0 l/m 0,0 km/h (0 Bft) O-SO 112 15 min 0,000 mm 0,0 UV-I 298 W/m 12,4 C 18,0 C 0,0 km/h (0 Bft) 0,00 %
29.09.2014 18:00 17,6 C 71 % 1021,6 hPa 0,0 l/m 0,0 km/h (0 Bft) S 174 15 min 0,000 mm 0,0 UV-I 228 W/m 12,3 C 17,6 C 0,0 km/h (0 Bft) 0,00 %
29.09.2014 18:15 17,0 C 72 % 1021,9 hPa 0,0 l/m 0,0 km/h (0 Bft) S-SO 158 15 min 0,000 mm 0,0 UV-I 131 W/m 11,9 C 17,0 C 0,0 km/h (0 Bft) 0,00 %
29.09.2014 18:30 16,1 C 77 % 1022,3 hPa 0,0 l/m 0,0 km/h (0 Bft) SO 125 15 min 0,000 mm 0,0 UV-I 38 W/m 12,1 C 16,1 C 0,0 km/h (0 Bft) 0,00 %
29.09.2014 18:45 15,4 C 81 % 1022,5 hPa 0,0 l/m 0,0 km/h (0 Bft) S 173 0 min 0,000 mm 0,0 UV-I 0 W/m 12,2 C 15,4 C 0,0 km/h (0 Bft) 0,00 %
29.09.2014 19:00 14,6 C 83 % 1022,5 hPa 0,0 l/m 0,0 km/h (0 Bft) SO 136 0 min 0,000 mm 0,0 UV-I 0 W/m 11,7 C 14,6 C 0,0 km/h (0 Bft) 0,00 %
29.09.2014 19:15 14,3 C 84 % 1022,8 hPa 0,0 l/m 0,0 km/h (0 Bft) S-SO 154 0 min 0,000 mm 0,0 UV-I 0 W/m 11,6 C 14,3 C 0,0 km/h (0 Bft) 0,00 %
29.09.2014 19:30 14,0 C 85 % 1022,9 hPa 0,0 l/m 0,0 km/h (0 Bft) S 173 0 min 0,000 mm 0,0 UV-I 0 W/m 11,5 C 14,0 C 0,0 km/h (0 Bft) 0,00 %
29.09.2014 19:45 13,6 C 86 % 1023,1 hPa 0,0 l/m 0,0 km/h (0 Bft) S 178 0 min 0,000 mm 0,0 UV-I 0 W/m 11,3 C 13,6 C 0,0 km/h (0 Bft) 0,00 %
29.09.2014 20:00 13,1 C 87 % 1023,2 hPa 0,0 l/m 0,0 km/h (0 Bft) S-SW 197 0 min 0,000 mm 0,0 UV-I 0 W/m 11,0 C 13,1 C 0,0 km/h (0 Bft) 0,00 %
29.09.2014 20:15 12,8 C 88 % 1023,4 hPa 0,0 l/m 0,0 km/h (0 Bft) S-SW 197 0 min 0,000 mm 0,0 UV-I 0 W/m 10,9 C 12,8 C 0,0 km/h (0 Bft) 0,00 %
29.09.2014 20:30 12,5 C 87 % 1023,6 hPa 0,0 l/m 0,0 km/h (0 Bft) S-SW 196 0 min 0,000 mm 0,0 UV-I 0 W/m 10,4 C 12,5 C 0,0 km/h (0 Bft) 0,00 %
29.09.2014 20:45 12,3 C 88 % 1023,7 hPa 0,0 l/m 0,0 km/h (0 Bft) S-SW 196 0 min 0,000 mm 0,0 UV-I 0 W/m 10,4 C 12,3 C 0,0 km/h (0 Bft) 0,00 %
29.09.2014 21:00 12,0 C 88 % 1024,0 hPa 0,0 l/m 0,0 km/h (0 Bft) S-SW 196 0 min 0,000 mm 0,0 UV-I 0 W/m 10,1 C 12,0 C 0,0 km/h (0 Bft) 0,00 %
29.09.2014 21:15 11,9 C 88 % 1024,0 hPa 0,0 l/m 0,0 km/h (0 Bft) S-SW 212 0 min 0,000 mm 0,0 UV-I 0 W/m 10,0 C 11,9 C 0,0 km/h (0 Bft) 0,00 %
29.09.2014 21:30 12,1 C 88 % 1024,0 hPa 0,0 l/m 0,0 km/h (0 Bft) S 173 0 min 0,000 mm 0,0 UV-I 0 W/m 10,2 C 12,1 C 0,0 km/h (0 Bft) 0,00 %
29.09.2014 21:45 12,0 C 88 % 1024,1 hPa 0,0 l/m 0,0 km/h (0 Bft) S-SW 198 0 min 0,000 mm 0,0 UV-I 0 W/m 10,1 C 12,0 C 0,0 km/h (0 Bft) 0,00 %
29.09.2014 22:00 11,7 C 88 % 1024,1 hPa 0,0 l/m 0,0 km/h (0 Bft) S-SW 198 0 min 0,000 mm 0,0 UV-I 0 W/m 9,8 C 11,7 C 0,0 km/h (0 Bft) 0,00 %
29.09.2014 22:15 11,6 C 88 % 1024,0 hPa 0,0 l/m 0,0 km/h (0 Bft) S 178 0 min 0,000 mm 0,0 UV-I 0 W/m 9,7 C 11,6 C 0,0 km/h (0 Bft) 0,00 %
29.09.2014 22:30 11,3 C 89 % 1024,1 hPa 0,0 l/m 0,0 km/h (0 Bft) S-SW 200 0 min 0,000 mm 0,0 UV-I 0 W/m 9,6 C 11,3 C 0,0 km/h (0 Bft) 0,00 %
29.09.2014 22:45 10,9 C 89 % 1024,0 hPa 0,0 l/m 0,0 km/h (0 Bft) S-SW 200 0 min 0,000 mm 0,0 UV-I 0 W/m 9,2 C 10,9 C 0,0 km/h (0 Bft) 0,00 %
29.09.2014 23:00 10,8 C 89 % 1024,1 hPa 0,0 l/m 0,0 km/h (0 Bft) S-SW 192 0 min 0,000 mm 0,0 UV-I 0 W/m 9,1 C 10,8 C 0,0 km/h (0 Bft) 0,00 %
29.09.2014 23:15 10,8 C 89 % 1024,2 hPa 0,0 l/m 0,0 km/h (0 Bft) S-SW 211 0 min 0,000 mm 0,0 UV-I 0 W/m 9,1 C 10,8 C 0,0 km/h (0 Bft) 0,00 %
29.09.2014 23:30 10,4 C 90 % 1024,3 hPa 0,0 l/m 0,0 km/h (0 Bft) S-SW 211 0 min 0,000 mm 0,0 UV-I 0 W/m 8,8 C 10,4 C 0,0 km/h (0 Bft) 0,00 %
_ Min-Zeit 01:15 16:45 16:15 - 00:00 - - - - - - 01:15 01:15 00:00 00:00
Minimum _ 10,1 C 67 % 1020,9 hPa - 0,0 km/h (0 Bft) - - - - - - 8,4 C 10,1 C 0,0 km/h (0 Bft) 0,00 %
_ Max-Zeit 17:00 01:45 10:45 00:00 13:15 - - 12:30 00:00 11:45 13:00 16:30 17:00 10:30 00:00
Maximum _ 19,0 C 90 % 1026,5 hPa 0,0 l/m 3,2 km/h
O-NO (1 Bft)
- - 15 min 0,000 mm 5,0 UV-I 576 W/m 12,9 C 19,0 C 4,0 km/h
W-SW (1 Bft)
0,00 %
Durchschnitt _ 13,3 C 83 % 1024,1 hPa #0,0 l/m 0,2 km/h (0 Bft) O-SO - #6:15 h #0,000 mm 2,0 UV-I 314 W/m 10,4 C 13,3 C 0,8 km/h (0 Bft) 0,00 %